Hourly Weather Santiago del Estero

Today, 4 August, Tuesday

Time Temperature Precipitation Wind Pressure Humidity
00:00 +26°C° 0 mm 4 mps 742 mmHg 41%
01:00 +26°C° 0 mm 4 mps 742 mmHg 43%
02:00 +25°C° 0 mm 4 mps 742 mmHg 43%
03:00 +25°C° 0 mm 4 mps 742 mmHg 45%
04:00 +23°C° 0 mm 4 mps 741 mmHg 46%
05:00 +23°C° 0 mm 4 mps 741 mmHg 48%
06:00 +23°C° 0 mm 5 mps 742 mmHg 48%
07:00 +23°C° 0 mm 5 mps 742 mmHg 47%
08:00 +25°C° 0 mm 5 mps 742 mmHg 47%
09:00 +27°C° 0 mm 6 mps 742 mmHg 41%
10:00 +31°C° 0 mm 8 mps 742 mmHg 34%
11:00 +33°C° 0 mm 9 mps 742 mmHg 28%
12:00 +35°C° 0 mm 9 mps 741 mmHg 25%
13:00 +37°C° 0 mm 9 mps 741 mmHg 23%
14:00 +38°C° 0 mm 9 mps 740 mmHg 20%
15:00 +38°C° 0 mm 8 mps 739 mmHg 21%
16:00 +36°C° 0 mm 7 mps 739 mmHg 21%
17:00 +36°C° 0 mm 6 mps 739 mmHg 22%
18:00 +34°C° 0 mm 6 mps 739 mmHg 24%
19:00 +32°C° 0 mm 6 mps 739 mmHg 26%
20:00 +30°C° 0 mm 5 mps 739 mmHg 28%
21:00 +29°C° 0 mm 5 mps 740 mmHg 30%
22:00 +28°C° 0 mm 5 mps 740 mmHg 32%
23:00 +27°C° 0 mm 5 mps 740 mmHg 33%

Tomorrow, 5 August, Wednesday

Time Temperature Precipitation Wind Pressure Humidity
00:00 +27°C° 0 mm 5 mps 740 mmHg 35%
01:00 +26°C° 0 mm 5 mps 740 mmHg 37%
02:00 +26°C° 0 mm 4 mps 740 mmHg 38%
03:00 +25°C° 0 mm 5 mps 740 mmHg 39%
04:00 +25°C° 0 mm 5 mps 739 mmHg 40%
05:00 +23°C° 0 mm 5 mps 739 mmHg 41%
06:00 +23°C° 0 mm 5 mps 740 mmHg 40%
07:00 +23°C° 0 mm 5 mps 740 mmHg 40%
08:00 +25°C° 0 mm 5 mps 740 mmHg 40%
09:00 +27°C° 0 mm 6 mps 740 mmHg 35%
10:00 +30°C° 0 mm 7 mps 740 mmHg 30%
11:00 +34°C° 0 mm 9 mps 740 mmHg 25%
12:00 +35°C° 0 mm 8 mps 740 mmHg 24%
13:00 +37°C° 0 mm 8 mps 739 mmHg 23%
14:00 +38°C° 0 mm 8 mps 738 mmHg 22%
15:00 +38°C° 0 mm 7 mps 738 mmHg 22%
16:00 +38°C° 0 mm 6 mps 738 mmHg 23%
17:00 +36°C° 0 mm 4 mps 737 mmHg 23%
18:00 +34°C° 0 mm 4 mps 738 mmHg 27%
19:00 +30°C° 0 mm 3 mps 738 mmHg 31%
20:00 +28°C° 0 mm 3 mps 739 mmHg 34%
21:00 +27°C° 0 mm 3 mps 739 mmHg 35%
22:00 +27°C° 0 mm 3 mps 740 mmHg 35%
23:00 +26°C° 0 mm 3 mps 740 mmHg 35%

Day after tomorrow, 6 August, Thursday

Time Temperature Precipitation Wind Pressure Humidity
00:00 +25°C° 0 mm 3 mps 740 mmHg 38%
01:00 +24°C° 0 mm 2 mps 740 mmHg 40%
02:00 +23°C° 0 mm 2 mps 741 mmHg 42%
03:00 +22°C° 0 mm 3 mps 741 mmHg 45%
04:00 +21°C° 0 mm 4 mps 742 mmHg 48%
05:00 +21°C° 0 mm 5 mps 742 mmHg 51%
06:00 +20°C° 0 mm 6 mps 743 mmHg 56%
07:00 +20°C° 0 mm 7 mps 744 mmHg 61%
08:00 +18°C° 0 mm 7 mps 745 mmHg 67%
09:00 +21°C° 0 mm 7 mps 746 mmHg 56%
10:00 +22°C° 0 mm 7 mps 747 mmHg 46%
11:00 +24°C° 0 mm 8 mps 747 mmHg 36%
12:00 +26°C° 0 mm 7 mps 747 mmHg 33%
13:00 +26°C° 0 mm 7 mps 747 mmHg 31%
14:00 +27°C° 0 mm 7 mps 747 mmHg 28%
15:00 +26°C° 0 mm 7 mps 747 mmHg 29%
16:00 +24°C° 0 mm 7 mps 747 mmHg 31%
17:00 +23°C° 0 mm 7 mps 747 mmHg 32%
18:00 +21°C° 0 mm 6 mps 747 mmHg 36%
19:00 +19°C° 0 mm 5 mps 747 mmHg 39%
20:00 +16°C° 0 mm 5 mps 748 mmHg 42%
21:00 +17°C° 0 mm 4 mps 748 mmHg 42%
22:00 +15°C° 0 mm 4 mps 748 mmHg 42%
23:00 +14°C° 0 mm 3 mps 748 mmHg 42%

7 August, Friday

Time Temperature Precipitation Wind Pressure Humidity
00:00 +14°C° 0 mm 3 mps 747 mmHg 43%
01:00 +14°C° 0 mm 2 mps 747 mmHg 44%
02:00 +14°C° 0 mm 2 mps 746 mmHg 46%
03:00 +13°C° 0 mm 2 mps 746 mmHg 47%
04:00 +13°C° 0 mm 2 mps 745 mmHg 47%
05:00 +12°C° 0 mm 2 mps 745 mmHg 48%
06:00 +13°C° 0 mm 2 mps 745 mmHg 47%
07:00 +13°C° 0 mm 2 mps 746 mmHg 46%
08:00 +13°C° 0 mm 3 mps 746 mmHg 45%
09:00 +16°C° 0 mm 3 mps 746 mmHg 43%
10:00 +18°C° 0 mm 3 mps 746 mmHg 41%
11:00 +19°C° 0 mm 4 mps 746 mmHg 39%
12:00 +21°C° 0 mm 4 mps 746 mmHg 38%
13:00 +22°C° 0 mm 4 mps 745 mmHg 36%
14:00 +25°C° 0 mm 4 mps 745 mmHg 35%
15:00 +23°C° 0 mm 4 mps 745 mmHg 36%
16:00 +23°C° 0 mm 4 mps 745 mmHg 36%
17:00 +23°C° 0 mm 4 mps 745 mmHg 37%
18:00 +21°C° 0 mm 4 mps 746 mmHg 43%
19:00 +19°C° 0 mm 3 mps 747 mmHg 50%
20:00 +17°C° 0 mm 2 mps 748 mmHg 56%
21:00 +17°C° 0 mm 3 mps 748 mmHg 61%
22:00 +16°C° 0 mm 3 mps 749 mmHg 65%
23:00 +16°C° 0 mm 3 mps 749 mmHg 69%

8 August, Saturday

Time Temperature Precipitation Wind Pressure Humidity
00:00 +14°C° 0 mm 3 mps 749 mmHg 74%
01:00 +13°C° 0 mm 3 mps 748 mmHg 79%
02:00 +13°C° 0 mm 3 mps 748 mmHg 83%
03:00 +12°C° 0 mm 3 mps 748 mmHg 86%
04:00 +12°C° 0 mm 2 mps 748 mmHg 88%
05:00 +12°C° 0 mm 2 mps 748 mmHg 90%
06:00 +12°C° 0 mm 2 mps 748 mmHg 88%
07:00 +13°C° 0 mm 1 mps 748 mmHg 86%
08:00 +13°C° 0 mm 1 mps 749 mmHg 84%
09:00 +15°C° 0 mm 1 mps 748 mmHg 76%
10:00 +18°C° 0 mm 1 mps 748 mmHg 69%
11:00 +20°C° 0 mm 1 mps 747 mmHg 61%
12:00 +22°C° 0 mm 1 mps 746 mmHg 56%
13:00 +23°C° 0 mm 1 mps 745 mmHg 51%
14:00 +24°C° 0 mm 1 mps 744 mmHg 45%
15:00 +24°C° 0 mm 2 mps 744 mmHg 45%
16:00 +25°C° 0 mm 2 mps 743 mmHg 45%
17:00 +25°C° 0 mm 2 mps 743 mmHg 45%
18:00 +23°C° 0 mm 1 mps 743 mmHg 53%
19:00 +21°C° 0 mm 1 mps 743 mmHg 62%
20:00 +17°C° 0 mm 0 mps 744 mmHg 70%
21:00 +18°C° 0 mm 1 mps 744 mmHg 70%
22:00 +18°C° 0 mm 1 mps 744 mmHg 71%
23:00 +18°C° 0 mm 1 mps 744 mmHg 71%

9 August, Sunday

Time Temperature Precipitation Wind Pressure Humidity
00:00 +16°C° 0 mm 1 mps 743 mmHg 74%
01:00 +16°C° 0 mm 1 mps 743 mmHg 77%
02:00 +15°C° 0 mm 1 mps 742 mmHg 80%
03:00 +15°C° 0 mm 1 mps 742 mmHg 82%
04:00 +15°C° 0 mm 1 mps 742 mmHg 85%
05:00 +14°C° 0 mm 1 mps 741 mmHg 87%
06:00 +15°C° 0 mm 1 mps 742 mmHg 85%
07:00 +16°C° 0 mm 2 mps 742 mmHg 83%
08:00 +16°C° 0 mm 2 mps 743 mmHg 80%
09:00 +20°C° 0 mm 1 mps 742 mmHg 70%
10:00 +23°C° 0 mm 1 mps 742 mmHg 59%
11:00 +25°C° 0 mm 1 mps 742 mmHg 49%
12:00 +27°C° 0 mm 2 mps 741 mmHg 43%
13:00 +29°C° 0 mm 2 mps 740 mmHg 37%
14:00 +31°C° 0 mm 3 mps 739 mmHg 32%
15:00 +31°C° 0 mm 3 mps 739 mmHg 31%
16:00 +31°C° 0 mm 3 mps 739 mmHg 31%
17:00 +31°C° 0 mm 2 mps 738 mmHg 30%
18:00 +28°C° 0 mm 2 mps 739 mmHg 36%
19:00 +26°C° 0 mm 2 mps 739 mmHg 41%
20:00 +24°C° 0 mm 2 mps 739 mmHg 46%
21:00 +23°C° 0 mm 2 mps 739 mmHg 48%
22:00 +21°C° 0 mm 2 mps 740 mmHg 50%
23:00 +21°C° 0 mm 2 mps 740 mmHg 52%
Show more